Location: Rogalle
(42.8890°N, 1.1916°E)
Time: 14:33:50
(UTC+00:00)

Meteor 1-14 Rocket - Pass Details

Date: 13 December 2025
Orbit: 832 x 918 km, 81.3° (Epoch: 18 January)

Event Time Altitude Azimuth Distance (km) Brightness Sun altitude
Rises 18:32:09 0° 353° (N) 3,487 7.4 -23.1°
Reaches altitude 10° 18:34:41 10° 357° (N) 2,531 6.6 -23.5°
Enters shadow 18:39:09 48° 32° (NNE) 1,115 4.5 -24.4°
